Regional Weather Roundup
Issued by NWS Newport/Morehead, NC

Current Version | Previous Version | Text Only | Print | Product List | Glossary Off
Versions: 1 2 3 4 5 6 7 8 9 10 11 12 13 14 15 16 17 18 19 20 21 22 23 24 25 26 27 28 29 30 31 32 33 34 35 36 37 38 39 40 41 42 43 44 45 46 47 48 49 50
000 ASUS42 KMHX 222210 RWRMHX WEATHER ROUNDUP FOR EASTERN NORTH CAROLINA NATIONAL WEATHER SERVICE NEWPORT/MOREHEAD CITY NC 600 PM EDT MON SEP 22 2014 NOTE: "FAIR" INDICATES FEW OR NO CLOUDS BELOW 12,000 FEET WITH NO SIGNIFICANT WEATHER AND/OR OBSTRUCTIONS TO VISIBILITY NCZ015>017-031-032-045>047-102-103-222300- NORTH COAST CITY SKY/WX TMP DP RH WIND PRES REMARKS EDENTON SUNNY 77 54 45 CALM 30.03R ELIZABETH CITY SUNNY 73 57 57 E8 30.04R KITTY HAWK PTCLDY 73 56 55 NE5 30.03R MANTEO MOSUNNY 73 56 56 NE8 30.03S $$ NCZ045>047-081-094-103-104-222300- CENTRAL COAST CITY SKY/WX TMP DP RH WIND PRES REMARKS FRISCO MOSUNNY 72 62 71 NE9 30.02S SWANQUARTER N/A 77 N/A N/A S5 29.97S $$ NCZ095-097-098-100-101-222300- SOUTHERN COAST CITY SKY/WX TMP DP RH WIND PRES REMARKS BEAUFORT SUNNY 78 62 57 NE5 30.02R CEDAR ISLAND N/A 75 N/A N/A NE8 30.06S JACKSONVILLE MOSUNNY 78 56 46 N8 30.02R NEWPORT NOT AVBL PINEY ISLAND CLEAR 79 59 50 N8 30.02R WILMINGTON PTSUNNY 77 60 55 N5 30.03R $$ NCZ011>013-027>030-043-044-078>080-089-090>093-098-222300- COASTAL PLAIN CITY SKY/WX TMP DP RH WIND PRES REMARKS AHOSKIE SUNNY 72 55 54 CALM 30.05R CLINTON MOSUNNY 76 62 61 CALM 30.04R ELIZABETHTOWN PTSUNNY 75 61 62 CALM 30.03R GOLDSBORO SUNNY 76 60 57 CALM 30.02R GREENVILLE SUNNY 77 54 44 N3 30.05R HAVELOCK MOSUNNY 78 61 55 CALM 30.03R KENANSVILLE SUNNY 73 58 59 CALM 30.04R KINSTON SUNNY 75 55 50 N3 30.04R NEW BERN MOSUNNY 78 59 51 N3 30.03R RICHLANDS SUNNY 79 55 44 CALM 30.02R ROANOKE RAPIDS NOT AVBL ROCKY MOUNT MOSUNNY 75 55 49 N6 30.04R WASHINGTON SUNNY 76 56 50 N5 30.03R WHITEVILLE PTSUNNY 73 62 68 CALM 30.02R $$ AMZ130-135-150-152-154-156-158-170-250-252-270-ANZ085-086-088-633-658-670-222300- MARINE OBSERVATIONS STATION/POSITION TIME TEMP WIND PRES WAVE SWELL AIR SEA DIR/SP/G HT/PER HT/PER (UTC) (F) (DEG/KT/KT) (MB) (FT/S) (FT/S) CHESAPEAKE LIGHT 2100 71 30/ 7/ 8 1017.4 BUOY 44014 2200 71 76 350/ 12/ 14 1016.7 4/ 8 3/ 8 DUCK 2200 72 75 30/ 11/ 13 1016.3 2E DUCK 2100 N/A 3/ 8 OREGON INLET 2200 73 75 40/ 10/ 14 1016.6 BUOY 44095 2100 74 N/A 4/ 8 20E OREGON INLET NOT AVBL HATTERAS CG NOT AVBL DIAMOND BUOY 2200 74 360/ 14/ 17 1016.2 4/ 8 3/ 8 CAPE LOOKOUT 2100 77 10/ 8/ 10 1016.0 BEAUFORT LAB 2200 78 76 50/ 5/ 7 1015.8 30 SE NEW RIVER 2200 78 82 40/ 10/ 12 1015.6 3/ 8 3/ 8 5 SE WRIGHTSVILL 2100 74 79 50/ 10/ 12 N/A BUOY 41002 NOT AVBL BUOY 41004 2200 81 82 230/ 10/ 10 1015.4 3/ 8 3/ 8 $$

USA.gov is the U.S. government's official web portal to all federal, state and local government web resources and services.